Location: Unspecified
(0.0000°N, 0.0000°E)
Time: 00:55:37
(UTC+00:00)

Vanguard 1 - Visible Passes

Search period start: 28 July 2016 00:00
Search period end: 07 August 2016 00:00
Orbit: 649 x 3835 km, 34.2° (Epoch: 26 July)

Date Brightness Start Highest point End Pass type
(mag) Time Alt. Az. Time Alt. Az. Time Alt. Az.
28 Jul 12.1 20:12:50 10° SW 20:30:40 45° SSE 20:30:40 45° SSE visible
28 Jul 13.4 22:40:32 10° WSW 22:43:27 17° WSW 22:43:27 17° WSW visible
29 Jul 13.0 18:07:00 10° SSW 18:24:41 27° SSE 18:37:43 10° ESE visible
29 Jul 12.0 20:34:19 10° SW 20:51:17 56° S 20:51:17 56° S visible
29 Jul 13.6 23:03:02 10° WSW 23:04:05 12° WSW 23:04:05 12° WSW visible
30 Jul 12.8 18:28:41 10° SW 18:47:41 33° SSE 18:59:12 14° ESE visible
30 Jul 11.9 20:55:56 10° SW 21:12:00 64° SSW 21:12:00 64° SSW visible
31 Jul 12.6 18:50:12 10° SW 19:10:19 40° SSE 19:20:00 21° E visible
31 Jul 12.0 21:17:49 10° SW 21:32:48 62° WSW 21:32:48 62° WSW visible
01 Aug 12.4 19:11:40 10° SW 19:32:39 51° SSE 19:40:53 28° E visible
01 Aug 12.2 21:40:02 10° WSW 21:53:42 51° W 21:53:42 51° W visible
02 Aug 12.1 19:33:11 10° SW 19:54:41 64° SSE 20:01:52 35° E visible
02 Aug 12.5 22:02:42 10° WSW 22:14:41 40° WNW 22:14:41 40° WNW visible
03 Aug 12.0 19:54:52 10° SW 20:16:25 80° SE 20:22:54 40° ENE visible
03 Aug 12.9 22:25:57 10° W 22:35:44 29° WNW 22:35:44 29° WNW visible
04 Aug 12.0 20:16:48 10° SW 20:37:55 82° NW 20:44:01 41° NE visible
04 Aug 13.2 22:49:58 10° W 22:56:50 20° WNW 22:56:50 20° WNW visible
05 Aug 12.7 18:10:49 10° SW 18:33:36 55° SSE 18:48:56 10° ENE visible
05 Aug 12.2 20:39:05 10° WSW 20:59:12 64° NW 21:05:08 38° NNE visible
05 Aug 13.4 23:15:10 10° WNW 23:17:58 13° WNW 23:17:58 13° WNW visible
06 Aug 12.6 18:32:18 10° SW 18:55:39 68° SE 19:10:39 10° ENE visible
06 Aug 12.5 21:01:50 10° WSW 21:20:22 49° NW 21:26:15 32° N visible
